Flag Weather past 2 weeks in Minot, North Dakota, U.S.A.

Now
5 °F

Light snow. Ice fog.


Feels Like: -6 °F
Forecast: -3 / 8 °F
Wind: 6 mph from North

Location: Minot International Airport

Current Time: Nov 26, 2014 at 5:37:49 AM

Latest Report: Nov 26, 2014 at 4:54 AM


Visibility: 1 mi

Pressure: 30.39 "Hg

Humidity: 83%

Dew point: 1 °F

Location of MinotLocation

Historic Weather in Minot — Graph

°F

Minot temperature yesterday

Maximum temperature yesterday: 29 °F (at 12:54 PM)
Minimum temperature yesterday: 3 °F (at 11:54 PM)
Average temperature yesterday: 22 °F

Past Weeks' High & Low Weather Summary

 TemperatureHumidityPressure
High50 °F (Nov 21, 1:54 PM)96% (Nov 22, 5:54 AM)30.71 "Hg (Nov 22, 5:54 AM)
Low0 °F (Nov 14, 4:54 AM)39% (Nov 21, 1:54 PM)29.29 "Hg (Nov 22, 5:54 PM)
Average17 °F71%30.09 "Hg
* Reported Nov 11 3:54 AM — Nov 26 3:54 AM, Minot, Weather by CustomWeather, © 2014

Note: Actual official high and low records may vary slightly from our data, if they occured in-between our weather recording intervals... More about our weather records

Advertising

Minot weather history for previous 24 hours

 ConditionsComfort  
Time TempWeatherWind HumidityBarometerVisibility
3:54 AM
Nov 26
5 °FLight snow. Overcast.3 mph80%30.38 "Hg4 mi
2:54 AM5 °FLight snow. Overcast.7 mph80%30.37 "Hg5 mi
1:54 AM4 °FIce fog.8 mph84%30.33 "Hg6 mi
12:54 AM5 °FOvercast.7 mph80%30.31 "Hg5 mi
12:01 AM4 °FIce fog.8 mph84%30.19 "Hg6 mi
11:54 PM
Nov 25
3 °FPassing clouds.7 mph79%30.29 "Hg6 mi
10:54 PM7 °FOvercast.14 mph79%30.26 "Hg6 mi
9:54 PM9 °FOvercast.14 mph80%30.21 "Hg3 mi
8:54 PM13 °FIce fog.13 mph84%30.15 "Hg2 mi
7:54 PM17 °FLight snow. Ice fog.12 mph83%30.11 "Hg2 mi
6:54 PM18 °FLight snow. Ice fog.17 mph84%30.05 "Hg2 mi
5:54 PM19 °FLight snow. Ice fog.20 mph85%29.98 "Hg1 mi
4:54 PM23 °FSnow. Ice fog.18 mph88%29.91 "Hg0 mi
3:54 PM25 °FSnow. Ice fog.15 mph88%29.85 "Hg0 mi
2:54 PM27 °FSnow. Ice fog.16 mph89%29.80 "Hg0 mi
1:54 PM29 °FSnow. Ice fog.14 mph89%29.77 "Hg0 mi
12:54 PM29 °FLight snow. Mostly cloudy.12 mph89%29.78 "Hg1 mi
11:54 AM28 °FLight snow. Mostly cloudy.13 mph89%29.79 "Hg1 mi
10:54 AM28 °FLight snow. Low clouds.13 mph85%29.82 "Hg1 mi
9:54 AM27 °FLight snow. Overcast.12 mph85%29.84 "Hg2 mi
8:54 AM26 °FOvercast.12 mph81%29.87 "Hg8 mi
7:54 AM25 °FOvercast.6 mph85%29.88 "Hg8 mi
6:54 AM25 °FOvercast.7 mph85%29.89 "Hg9 mi
5:54 AM25 °FOvercast.6 mph85%29.92 "Hg9 mi
Weather by CustomWeather, © 2014

See weather overviewHow to use our weather pages